EZY58AN EGKK-LFMU

Flight info

Callsign EZY58AN
Flight time 1h 20m
Altitude 35000
Route SFD UY47 BENBO UL612 RESMI UM728 KETEX DCT KUKOR DCT MEN
Aircraft A320/M-SDE3FGHIRWY/LB1

Departure

Time 2026-04-20 21:22
Airport London Gatwick Airport (EGKK)

Arrival

Time 2026-04-20 22:43
Airport Béziers Vias airport (LFMU)
Time Latitude Longitude Altitude Speed Heading
2026-04-20 21:00 51.15583 -0.17685 205 ft 0 kts 348°
2026-04-20 21:12 51.15580 -0.17684 205 ft 2 kts 348°
2026-04-20 21:13 51.15564 -0.17678 215 ft 2 kts 346°
2026-04-20 21:13 51.15548 -0.17670 217 ft 2 kts 338°
2026-04-20 21:13 51.15533 -0.17658 206 ft 2 kts 320°
2026-04-20 21:13 51.15523 -0.17637 217 ft 2 kts 266°
2026-04-20 21:14 51.15524 -0.17622 217 ft 0 kts 258°
2026-04-20 21:16 51.15518 -0.17670 206 ft 11 kts 258°
2026-04-20 21:16 51.15495 -0.17838 205 ft 17 kts 257°
2026-04-20 21:16 51.15470 -0.18017 209 ft 17 kts 258°
2026-04-20 21:17 51.15443 -0.18215 212 ft 11 kts 257°
2026-04-20 21:17 51.15374 -0.18275 207 ft 22 kts 168°
2026-04-20 21:17 51.15238 -0.18228 214 ft 15 kts 167°
2026-04-20 21:17 51.15186 -0.18326 212 ft 17 kts 262°
2026-04-20 21:18 51.15156 -0.18551 214 ft 21 kts 257°
2026-04-20 21:18 51.15121 -0.18805 205 ft 29 kts 258°
2026-04-20 21:18 51.15078 -0.19119 207 ft 26 kts 258°
2026-04-20 21:18 51.15022 -0.19272 212 ft 14 kts 182°
2026-04-20 21:19 51.14956 -0.19342 213 ft 18 kts 257°
2026-04-20 21:19 51.14927 -0.19551 215 ft 19 kts 258°
2026-04-20 21:19 51.14900 -0.19749 207 ft 20 kts 258°
2026-04-20 21:20 51.14822 -0.20309 212 ft 29 kts 258°
2026-04-20 21:20 51.14777 -0.20626 207 ft 30 kts 257°
2026-04-20 21:20 51.14740 -0.20908 214 ft 24 kts 257°
2026-04-20 21:20 51.14708 -0.21140 210 ft 14 kts 257°
2026-04-20 21:21 51.14686 -0.21288 210 ft 13 kts 253°
2026-04-20 21:21 51.14617 -0.21330 205 ft 14 kts 167°
2026-04-20 21:21 51.14524 -0.21228 213 ft 18 kts 111°
2026-04-20 21:21 51.14551 -0.20940 212 ft 52 kts 77°
2026-04-20 21:22 51.14682 -0.20001 212 ft 119 kts 77°
2026-04-20 21:22 51.14899 -0.18436 251 ft 164 kts 77°
2026-04-20 21:22 51.15121 -0.16714 996 ft 159 kts 77°
2026-04-20 21:22 51.15347 -0.14987 1720 ft 164 kts 76°
2026-04-20 21:23 51.15612 -0.13100 2102 ft 186 kts 75°
2026-04-20 21:23 51.15911 -0.10991 2548 ft 203 kts 75°
2026-04-20 21:23 51.16211 -0.08752 3288 ft 210 kts 79°
2026-04-20 21:23 51.15967 -0.06434 4018 ft 225 kts 117°
2026-04-20 21:24 51.14745 -0.04688 4518 ft 255 kts 152°
2026-04-20 21:24 51.12979 -0.03802 5134 ft 275 kts 166°
2026-04-20 21:24 51.11068 -0.03316 6013 ft 281 kts 171°
2026-04-20 21:24 51.09119 -0.02900 6953 ft 284 kts 169°
2026-04-20 21:25 51.07204 -0.02312 7844 ft 286 kts 166°
2026-04-20 21:25 51.05265 -0.01555 8761 ft 288 kts 164°
2026-04-20 21:25 51.03321 -0.00694 9675 ft 291 kts 163°
2026-04-20 21:25 51.01366 0.00226 10497 ft 297 kts 163°
2026-04-20 21:26 50.99302 0.01218 10791 ft 321 kts 163°
2026-04-20 21:26 50.97100 0.02279 11175 ft 338 kts 163°
2026-04-20 21:26 50.94819 0.03376 11866 ft 345 kts 163°
2026-04-20 21:26 50.92508 0.04477 12619 ft 349 kts 164°
2026-04-20 21:27 50.90222 0.05555 13351 ft 354 kts 164°
2026-04-20 21:27 50.87849 0.06669 14084 ft 359 kts 164°
2026-04-20 21:27 50.85466 0.07789 14708 ft 364 kts 165°
2026-04-20 21:27 50.83024 0.08936 15321 ft 369 kts 165°
2026-04-20 21:28 50.80543 0.10100 15922 ft 375 kts 165°
2026-04-20 21:28 50.78002 0.11111 16529 ft 378 kts 173°
2026-04-20 21:28 50.75381 0.11424 17122 ft 380 kts 185°
2026-04-20 21:28 50.72748 0.10978 17728 ft 380 kts 196°
2026-04-20 21:29 50.70171 0.10040 18350 ft 383 kts 198°
2026-04-20 21:29 50.67563 0.09082 18915 ft 387 kts 198°
2026-04-20 21:29 50.64961 0.08139 19483 ft 390 kts 198°
2026-04-20 21:29 50.62312 0.07186 20068 ft 392 kts 198°
2026-04-20 21:30 50.59642 0.06226 20668 ft 394 kts 199°
2026-04-20 21:30 50.56960 0.05259 21263 ft 397 kts 199°
2026-04-20 21:30 50.54264 0.04287 21864 ft 399 kts 199°
2026-04-20 21:30 50.51551 0.03312 22458 ft 401 kts 199°
2026-04-20 21:31 50.48764 0.02653 23027 ft 411 kts 189°
2026-04-20 21:31 50.45871 0.02852 23572 ft 423 kts 177°
2026-04-20 21:31 50.42984 0.03992 24046 ft 434 kts 165°
2026-04-20 21:31 50.40274 0.06041 24447 ft 444 kts 152°
2026-04-20 21:32 50.37678 0.08725 24845 ft 449 kts 150°
2026-04-20 21:32 50.35069 0.11433 25230 ft 452 kts 150°
2026-04-20 21:32 50.32435 0.14153 25605 ft 455 kts 150°
2026-04-20 21:32 50.29778 0.16890 25971 ft 459 kts 151°
2026-04-20 21:33 50.27107 0.19639 26323 ft 462 kts 151°
2026-04-20 21:33 50.24465 0.22352 26673 ft 465 kts 151°
2026-04-20 21:33 50.21750 0.25137 27030 ft 468 kts 151°
2026-04-20 21:33 50.19050 0.27903 27367 ft 471 kts 151°
2026-04-20 21:34 50.16305 0.30716 27718 ft 474 kts 151°
2026-04-20 21:34 50.13537 0.33557 28056 ft 477 kts 151°
2026-04-20 21:34 50.10756 0.36411 28392 ft 480 kts 151°
2026-04-20 21:34 50.07958 0.39281 28719 ft 483 kts 151°
2026-04-20 21:35 50.05139 0.42172 29037 ft 486 kts 151°
2026-04-20 21:35 50.02308 0.45070 29349 ft 489 kts 151°
2026-04-20 21:35 49.99459 0.47984 29662 ft 491 kts 151°
2026-04-20 21:35 49.96595 0.50912 29967 ft 494 kts 151°
2026-04-20 21:36 49.93757 0.53804 30257 ft 496 kts 151°
2026-04-20 21:36 49.90862 0.56742 30514 ft 498 kts 151°
2026-04-20 21:36 49.87958 0.59679 30771 ft 499 kts 151°
2026-04-20 21:36 49.85088 0.62728 31032 ft 503 kts 145°
2026-04-20 21:37 49.82360 0.66147 31284 ft 505 kts 144°
2026-04-20 21:37 49.79634 0.69584 31530 ft 506 kts 144°
2026-04-20 21:37 49.76911 0.73015 31861 ft 504 kts 144°
2026-04-20 21:37 49.74195 0.76428 32208 ft 502 kts 144°
2026-04-20 21:38 49.71487 0.79832 32560 ft 501 kts 144°
2026-04-20 21:38 49.68827 0.83165 32891 ft 500 kts 144°
2026-04-20 21:38 49.66125 0.86549 33233 ft 498 kts 144°
2026-04-20 21:38 49.63441 0.89908 33575 ft 497 kts 144°
2026-04-20 21:39 49.60754 0.93264 33914 ft 496 kts 144°
2026-04-20 21:39 49.58491 0.96078 34199 ft 495 kts 144°
2026-04-20 21:39 49.55845 0.99365 34481 ft 494 kts 144°
2026-04-20 21:39 49.53176 1.02673 34773 ft 492 kts 144°
2026-04-20 21:40 49.50511 1.05975 35064 ft 491 kts 143°
2026-04-20 21:40 49.47898 1.09217 35194 ft 490 kts 143°
2026-04-20 21:40 49.45211 1.12541 35218 ft 486 kts 144°
2026-04-20 21:41 49.39990 1.18973 35215 ft 484 kts 144°
2026-04-20 21:41 49.34736 1.25432 35219 ft 483 kts 144°
2026-04-20 21:42 49.29489 1.31874 35222 ft 483 kts 144°
2026-04-20 21:42 49.24240 1.38304 35214 ft 483 kts 144°
2026-04-20 21:43 49.19020 1.44673 35216 ft 483 kts 144°
2026-04-20 21:43 49.13769 1.51075 35203 ft 483 kts 144°
2026-04-20 21:44 49.08506 1.57464 35201 ft 483 kts 144°
2026-04-20 21:44 49.03236 1.63816 35195 ft 483 kts 144°
2026-04-20 21:45 48.98007 1.70120 35194 ft 483 kts 144°
2026-04-20 21:45 48.92750 1.76467 35194 ft 482 kts 144°
2026-04-20 21:46 48.87490 1.82783 35192 ft 482 kts 144°
2026-04-20 21:46 48.82258 1.89045 35193 ft 481 kts 144°
2026-04-20 21:47 48.77136 1.95145 35196 ft 481 kts 144°
2026-04-20 21:47 48.72831 2.00271 35199 ft 481 kts 144°
2026-04-20 21:48 48.67568 2.06532 35198 ft 481 kts 144°
2026-04-20 21:48 48.62303 2.12763 35193 ft 481 kts 144°
2026-04-20 21:49 48.56842 2.18355 35183 ft 475 kts 158°
2026-04-20 21:49 48.50673 2.21555 35169 ft 467 kts 170°
2026-04-20 21:50 48.44370 2.23941 35150 ft 467 kts 170°
2026-04-20 21:50 48.38058 2.26329 35138 ft 468 kts 170°
2026-04-20 21:51 48.31785 2.28693 35134 ft 468 kts 171°
2026-04-20 21:51 48.25463 2.31092 35131 ft 469 kts 170°
2026-04-20 21:52 48.19153 2.33612 35133 ft 470 kts 170°
2026-04-20 21:52 48.12839 2.36170 35128 ft 470 kts 169°
2026-04-20 21:53 48.06616 2.39079 35128 ft 473 kts 166°
2026-04-20 21:53 48.00379 2.42334 35131 ft 475 kts 165°
2026-04-20 21:54 47.94137 2.45542 35132 ft 474 kts 166°
2026-04-20 21:54 47.87873 2.48640 35130 ft 475 kts 167°
2026-04-20 21:55 47.81596 2.51710 35125 ft 475 kts 167°
2026-04-20 21:55 47.75367 2.54775 35123 ft 475 kts 167°
2026-04-20 21:56 47.69093 2.57860 35111 ft 475 kts 167°
2026-04-20 21:56 47.62818 2.60923 35110 ft 475 kts 167°
2026-04-20 21:57 47.56546 2.63977 35106 ft 474 kts 167°
2026-04-20 21:57 47.50274 2.67034 35107 ft 474 kts 167°
2026-04-20 21:58 47.44050 2.70067 35106 ft 474 kts 167°
2026-04-20 21:58 47.37788 2.73101 35101 ft 474 kts 167°
2026-04-20 21:59 47.31532 2.76142 35099 ft 473 kts 167°
2026-04-20 21:59 47.25277 2.79163 35092 ft 473 kts 167°
2026-04-20 22:00 47.19068 2.82141 35089 ft 472 kts 167°
2026-04-20 22:00 47.12819 2.85134 35087 ft 472 kts 167°
2026-04-20 22:01 47.06582 2.88122 35085 ft 471 kts 167°
2026-04-20 22:01 47.00345 2.91099 35077 ft 471 kts 167°
2026-04-20 22:02 46.94158 2.94041 35076 ft 471 kts 167°
2026-04-20 22:02 46.87923 2.97006 35071 ft 471 kts 167°
2026-04-20 22:03 46.81695 2.99967 35067 ft 471 kts 167°
2026-04-20 22:03 46.75469 3.02907 35059 ft 470 kts 167°
2026-04-20 22:04 46.69235 3.05839 35060 ft 471 kts 167°
2026-04-20 22:04 46.63050 3.08753 35063 ft 470 kts 167°
2026-04-20 22:05 46.56820 3.11661 35055 ft 469 kts 169°
2026-04-20 22:05 46.50476 3.13006 35051 ft 456 kts 186°
2026-04-20 22:06 46.44131 3.13099 35049 ft 456 kts 186°
2026-04-20 22:06 46.37831 3.13199 35047 ft 456 kts 185°
2026-04-20 22:07 46.31484 3.13305 35043 ft 456 kts 186°
2026-04-20 22:07 46.25145 3.13421 35041 ft 456 kts 185°
2026-04-20 22:08 46.19866 3.13525 35039 ft 456 kts 185°
2026-04-20 22:08 46.12500 3.13652 35032 ft 456 kts 185°
2026-04-20 22:09 46.06161 3.13761 35035 ft 455 kts 185°
2026-04-20 22:09 46.00894 3.13862 35027 ft 455 kts 185°
2026-04-20 22:10 45.94560 3.13975 35033 ft 455 kts 185°
2026-04-20 22:10 45.87200 3.14095 35034 ft 455 kts 185°
2026-04-20 22:11 45.80871 3.14205 35033 ft 455 kts 185°
2026-04-20 22:11 45.75607 3.14297 35032 ft 455 kts 185°
2026-04-20 22:12 45.69282 3.14406 35030 ft 455 kts 185°
2026-04-20 22:12 45.62951 3.14513 35032 ft 455 kts 185°
2026-04-20 22:13 45.56623 3.14627 35030 ft 454 kts 185°
2026-04-20 22:13 45.50343 3.14731 35033 ft 454 kts 185°
2026-04-20 22:14 45.44024 3.14840 35038 ft 454 kts 185°
2026-04-20 22:14 45.37701 3.14949 35037 ft 454 kts 185°
2026-04-20 22:15 45.31388 3.15055 35035 ft 454 kts 185°
2026-04-20 22:15 45.25113 3.15168 35037 ft 454 kts 185°
2026-04-20 22:16 45.18794 3.15279 35039 ft 454 kts 185°
2026-04-20 22:16 45.12480 3.15373 35036 ft 454 kts 185°
2026-04-20 22:17 45.06164 3.15477 35036 ft 454 kts 185°
2026-04-20 22:17 44.99850 3.15588 35033 ft 454 kts 185°
2026-04-20 22:18 44.93659 3.15702 34990 ft 454 kts 185°
2026-04-20 22:18 44.90479 3.15755 34736 ft 454 kts 185°
2026-04-20 22:18 44.87315 3.15803 34047 ft 458 kts 185°
2026-04-20 22:18 44.84108 3.15844 33067 ft 462 kts 185°
2026-04-20 22:19 44.80923 3.15895 32566 ft 455 kts 185°
2026-04-20 22:19 44.77769 3.15954 31942 ft 452 kts 185°
2026-04-20 22:19 44.74634 3.16011 31345 ft 449 kts 185°
2026-04-20 22:19 44.71565 3.16066 30764 ft 446 kts 185°
2026-04-20 22:20 44.68470 3.16120 30170 ft 444 kts 185°
2026-04-20 22:20 44.65392 3.16171 29525 ft 441 kts 185°
2026-04-20 22:20 44.62341 3.16222 28967 ft 436 kts 185°
2026-04-20 22:20 44.59327 3.16307 28417 ft 433 kts 183°
2026-04-20 22:21 44.56328 3.16518 27870 ft 430 kts 181°
2026-04-20 22:21 44.53355 3.16818 27331 ft 426 kts 181°
2026-04-20 22:21 44.50449 3.17152 26820 ft 423 kts 180°
2026-04-20 22:21 44.47530 3.17490 26303 ft 419 kts 180°
2026-04-20 22:22 44.43658 3.17910 25649 ft 414 kts 181°
2026-04-20 22:22 44.41759 3.18101 25330 ft 412 kts 181°
2026-04-20 22:22 44.38905 3.18373 24855 ft 410 kts 181°
2026-04-20 22:22 44.36069 3.18634 24379 ft 407 kts 181°
2026-04-20 22:23 44.33248 3.18894 23895 ft 405 kts 181°
2026-04-20 22:23 44.30448 3.19156 23386 ft 403 kts 181°
2026-04-20 22:23 44.27700 3.19412 22894 ft 400 kts 180°
2026-04-20 22:23 44.24937 3.19676 22428 ft 396 kts 180°
2026-04-20 22:24 44.22199 3.19939 21938 ft 393 kts 180°
2026-04-20 22:24 44.19481 3.20199 21449 ft 391 kts 180°
2026-04-20 22:24 44.16780 3.20456 20971 ft 388 kts 180°
2026-04-20 22:24 44.14092 3.20714 20486 ft 386 kts 180°
2026-04-20 22:25 44.11422 3.20968 20003 ft 384 kts 180°
2026-04-20 22:25 44.08764 3.21219 19516 ft 382 kts 180°
2026-04-20 22:25 44.06151 3.21462 19035 ft 381 kts 180°
2026-04-20 22:25 44.03516 3.21706 18561 ft 379 kts 180°
2026-04-20 22:26 44.00885 3.21953 18054 ft 378 kts 180°
2026-04-20 22:26 43.98266 3.22202 17566 ft 376 kts 180°
2026-04-20 22:26 43.95668 3.22451 17104 ft 373 kts 179°
2026-04-20 22:27 43.90534 3.22931 16189 ft 367 kts 179°
2026-04-20 22:27 43.87995 3.23164 15735 ft 365 kts 179°
2026-04-20 22:27 43.85471 3.23397 15287 ft 363 kts 179°
2026-04-20 22:27 43.82990 3.23629 14845 ft 361 kts 179°
2026-04-20 22:28 43.80486 3.23863 14397 ft 360 kts 179°
2026-04-20 22:28 43.77996 3.24097 13944 ft 358 kts 179°
2026-04-20 22:28 43.75517 3.24330 13464 ft 356 kts 179°
2026-04-20 22:28 43.73053 3.24561 13001 ft 353 kts 179°
2026-04-20 22:29 43.70617 3.24791 12551 ft 350 kts 179°
2026-04-20 22:29 43.68203 3.25020 12099 ft 346 kts 179°
2026-04-20 22:29 43.65845 3.25239 11650 ft 343 kts 179°
2026-04-20 22:29 43.63474 3.25459 11196 ft 340 kts 179°
2026-04-20 22:30 43.61125 3.25678 10743 ft 337 kts 179°
2026-04-20 22:30 43.58797 3.25894 10289 ft 334 kts 178°
2026-04-20 22:30 43.56510 3.26106 10096 ft 323 kts 178°
2026-04-20 22:30 43.54311 3.26312 9969 ft 310 kts 178°
2026-04-20 22:31 43.52195 3.26511 9802 ft 300 kts 178°
2026-04-20 22:31 43.50164 3.26701 9205 ft 295 kts 178°
2026-04-20 22:31 43.48125 3.26890 8510 ft 292 kts 178°
2026-04-20 22:31 43.46109 3.27072 7372 ft 292 kts 178°
2026-04-20 22:32 43.44084 3.27253 6712 ft 286 kts 178°
2026-04-20 22:32 43.42177 3.27434 6551 ft 263 kts 178°
2026-04-20 22:32 43.40425 3.27603 6433 ft 241 kts 178°
2026-04-20 22:32 43.38800 3.27756 6334 ft 229 kts 178°
2026-04-20 22:33 43.37249 3.27900 6231 ft 219 kts 178°
2026-04-20 22:33 43.35756 3.28037 6128 ft 213 kts 178°
2026-04-20 22:33 43.34305 3.28165 6042 ft 211 kts 180°
2026-04-20 22:33 43.32860 3.27971 5949 ft 208 kts 197°
2026-04-20 22:34 43.31532 3.27215 5821 ft 206 kts 213°
2026-04-20 22:34 43.30342 3.26120 5683 ft 206 kts 216°
2026-04-20 22:34 43.29155 3.25027 5546 ft 205 kts 215°
2026-04-20 22:34 43.27968 3.23940 5414 ft 205 kts 215°
2026-04-20 22:35 43.26796 3.22867 5281 ft 205 kts 216°
2026-04-20 22:35 43.25613 3.21782 5162 ft 204 kts 216°
2026-04-20 22:35 43.24599 3.20450 5099 ft 202 kts 238°
2026-04-20 22:35 43.24091 3.18682 4924 ft 200 kts 262°
2026-04-20 22:36 43.24162 3.16802 4704 ft 199 kts 284°
2026-04-20 22:36 43.24527 3.14978 4492 ft 198 kts 285°
2026-04-20 22:36 43.24888 3.13154 4276 ft 198 kts 289°
2026-04-20 22:36 43.25653 3.11615 4073 ft 198 kts 321°
2026-04-20 22:37 43.26916 3.10904 3869 ft 200 kts 354°
2026-04-20 22:37 43.28286 3.10986 3672 ft 200 kts
2026-04-20 22:37 43.29646 3.11127 3463 ft 192 kts
2026-04-20 22:37 43.30952 3.11265 3273 ft 184 kts
2026-04-20 22:38 43.32188 3.11476 3061 ft 174 kts 18°
2026-04-20 22:38 43.33115 3.12388 2901 ft 157 kts 52°
2026-04-20 22:38 43.33494 3.13731 2748 ft 149 kts 84°
2026-04-20 22:38 43.33440 3.15136 2606 ft 146 kts 93°
2026-04-20 22:39 43.33366 3.16518 2452 ft 144 kts 92°
2026-04-20 22:39 43.33296 3.17862 2308 ft 143 kts 93°
2026-04-20 22:39 43.33224 3.19219 2160 ft 141 kts 93°
2026-04-20 22:39 43.33152 3.20568 2018 ft 141 kts 93°
2026-04-20 22:40 43.33080 3.21904 1834 ft 139 kts 93°
2026-04-20 22:40 43.33006 3.23225 1649 ft 138 kts 93°
2026-04-20 22:40 43.32932 3.24517 1439 ft 137 kts 94°
2026-04-20 22:40 43.32849 3.25819 1264 ft 137 kts 94°
2026-04-20 22:41 43.32775 3.27117 1091 ft 136 kts 93°
2026-04-20 22:41 43.32710 3.28411 922 ft 135 kts 92°
2026-04-20 22:41 43.32652 3.29700 735 ft 136 kts 93°
2026-04-20 22:41 43.32578 3.30983 538 ft 135 kts 93°
2026-04-20 22:42 43.32508 3.32259 356 ft 133 kts 92°
2026-04-20 22:42 43.32447 3.33531 197 ft 133 kts 92°
2026-04-20 22:42 43.32376 3.34766 58 ft 125 kts 93°
2026-04-20 22:42 43.32328 3.35649 54 ft 55 kts 95°
2026-04-20 22:43 43.32304 3.36085 51 ft 43 kts 95°
2026-04-20 22:43 43.32283 3.36458 51 ft 30 kts 94°
2026-04-20 22:43 43.32271 3.36640 51 ft 14 kts 99°
2026-04-20 22:43 43.32247 3.36730 51 ft 6 kts 64°
2026-04-20 22:44 43.32271 3.36706 48 ft 12 kts 270°
2026-04-20 22:44 43.32277 3.36548 51 ft 19 kts 274°
2026-04-20 22:44 43.32291 3.36310 52 ft 27 kts 274°
2026-04-20 22:44 43.32307 3.36015 52 ft 36 kts 274°
2026-04-20 22:45 43.32309 3.35801 49 ft 12 kts 234°
2026-04-20 22:45 43.32240 3.35784 54 ft 11 kts 184°
2026-04-20 22:45 43.32149 3.35774 54 ft 12 kts 185°
2026-04-20 22:45 43.32119 3.35720 54 ft 13 kts 275°
2026-04-20 22:46 43.32135 3.35541 55 ft 15 kts 292°
2026-04-20 22:46 43.32148 3.35460 55 ft 8 kts 303°
2026-04-20 22:46 43.32174 3.35362 56 ft 11 kts 262°
2026-04-20 22:46 43.32135 3.35341 51 ft 2 kts 221°
2026-04-20 22:47 43.32145 3.35310 56 ft 3 kts 304°
2026-04-20 22:47 43.32146 3.35308 56 ft 0 kts 307°